{"data":{"norad_id":59098,"epoch":"2026-05-25T04:23:07.990368Z","epoch_age_seconds":66170,"freshness":"FRESH","line1":"1 59098U 24043A   26145.18273137  .00002711  00000+0  23192-3 0  9994","line2":"2 59098  97.8490 276.8161 0012845  97.6575 262.6106 14.98414422121220","mean_motion":14.98414422,"eccentricity":0.0012845,"inclination_deg":97.849,"raan_deg":276.8161,"arg_perigee_deg":97.6575,"mean_anomaly_deg":262.6106,"bstar":0.00023192,"rev_number":12122,"period_min":96.101584371964,"perigee_km":562.8676476886,"apogee_km":580.72202257305,"semimajor_km":6949.9318351308,"source":"CELESTRAK","updated_at":"2026-05-25T13:38:01.188489Z"}}